Temperature
24 25 23 23 23 24 24 24 23 20 19 19 17 17 17 16 16 16 16 16 15 15 15 14 14 14 14 14 14 14 14 15 15 16 17 17 17 18 18 18 18 18 18 18
25 23 21 22 22 23 23 23 22 19 19 19 17 17 17 16 16 15 15 15 15 15 14 14 14 13 13 13 13 13 13 14 14 15 15 16 16 17 17 17 17 17 17 17
24 21 21 22 22 22 22 22 21 19 18 19 18 17 18 17 17 16 15 15 15 14 14 13 13 13 13 12 12 13 13 13 13 14 14 15 15 16 16 16 16 17 17 17
22 21 21 21 21 21 21 20 19 19 20 19 19 19 17 17 17 16 15 15 14 13 13 13 12 12 12 12 12 12 12 12 13 13 14 14 14 15 15 15 16 16 17 17
21 20 21 21 19 19 20 19 19 20 20 20 19 20 18 17 16 16 15 14 14 13 13 12 12 12 12 12 12 12 12 12 13 13 13 13 14 14 14 15 15 16 16 16
20 19 20 20 19 18 19 19 19 20 20 19 18 18 16 16 15 15 15 14 14 13 12 12 12 12 12 12 12 12 12 12 13 13 13 13 13 14 14 14 15 15 15 16
20 20 19 19 20 19 20 20 21 20 20 19 17 17 16 16 15 15 15 14 14 13 12 12 12 11 11 11 12 12 12 12 12 13 13 13 13 13 14 14 14 15 15 15
22 20 19 19 19 19 19 20 21 21 21 18 17 17 16 16 15 15 15 14 14 13 12 12 11 11 11 11 11 12 12 12 12 12 12 13 13 13 13 13 14 14 14 14
22 20 18 18 18 19 19 19 19 20 19 19 18 17 16 16 16 15 15 14 14 13 13 12 12 12 11 11 11 11 11 11 12 12 12 13 13 13 13 13 13 13 14 14
22 20 19 18 19 18 18 18 19 20 19 19 17 17 16 16 16 16 15 15 14 13 13 12 12 12 11 11 11 11 11 11 11 12 12 12 12 13 13 13 13 13 13 13
21 21 19 19 18 18 18 18 18 18 18 19 17 16 16 15 15 15 15 15 14 14 13 13 12 12 12 11 11 11 11 11 11 11 12 12 12 12 12 13 13 13 13 13
20 22 21 19 17 17 17 17 18 19 18 17 17 16 16 16 15 15 15 15 14 14 14 13 13 12 12 12 11 11 11 11 11 11 11 11 12 12 12 12 12 13 13 13
20 21 21 20 18 18 17 16 16 17 18 18 18 17 16 16 15 15 15 14 14 14 14 14 13 13 12 12 12 11 11 11 11 11 11 11 11 11 11 12 12 12 12 12
19 21 21 21 20 19 18 16 16 17 18 18 18 17 16 16 16 15 15 15 15 15 14 14 13 13 13 12 12 12 11 11 11 11 11 11 11 11 11 11 11 11 12 12
21 21 20 19 18 18 18 17 16 17 18 18 17 17 17 17 16 15 15 15 15 15 15 14 14 13 13 13 12 12 11 11 11 10 10 10 10 10 10 11 11 11 11 11
21 20 20 19 18 18 18 18 17 17 17 17 16 17 17 16 16 15 16 15 15 15 15 14 14 14 13 13 12 12 11 11 11 11 10 10 10 10 10 10 10 11 11 11
21 21 20 21 18 18 20 20 18 18 18 18 17 18 17 17 16 16 16 15 15 15 14 14 14 14 13 13 12 12 12 11 11 11 10 10 10 10 10 10 10 10 10 11
21 21 20 20 19 20 21 20 19 18 18 18 18 18 17 17 16 15 15 15 15 15 14 14 14 14 13 13 13 12 12 11 11 11 10 10 10 10 10 10 10 10 10 10
20 20 20 21 21 21 20 18 18 18 19 19 18 18 17 16 16 16 16 15 15 14 14 14 14 14 14 13 13 12 12 12 11 11 11 10 10 10 10 10 10 10 10 10
18 20 20 20 20 22 22 20 18 19 19 20 18 18 17 17 18 18 16 15 15 14 14 14 14 13 13 13 13 13 12 12 11 11 11 10 10 10 10 10 10 10 10 9
19 19 20 20 21 22 21 18 18 19 22 20 19 18 17 17 19 17 15 15 14 14 14 14 14 13 13 13 13 13 12 12 12 11 11 10 10 10 10 10 10 9 9 9
22 21 20 20 21 22 18 18 19 21 20 19 19 18 18 17 17 16 15 15 14 14 14 14 14 14 14 13 13 13 12 12 12 11 11 10 10 10 10 10 10 9 9 9
21 22 22 22 23 21 18 19 19 19 19 19 18 18 17 17 16 16 15 15 15 14 14 14 14 14 13 13 13 13 13 12 12 11 11 10 10 10 10 10 9 9 9 9
22 19 20 21 22 20 18 18 18 18 19 18 18 18 17 17 16 16 15 15 15 15 15 15 14 14 14 14 13 13 13 12 12 11 11 11 10 10 10 10 9 9 9 9
22 19 20 21 22 20 18 18 17 17 17 17 18 17 17 17 16 16 16 15 15 15 15 15 15 14 14 14 13 13 13 12 12 11 11 11 10 10 10 10 10 9 9 9
21 21 21 23 24 23 22 20 18 17 17 17 17 17 17 17 16 16 16 16 15 15 15 15 15 15 14 14 14 14 13 13 12 12 11 11 11 10 10 10 10 10 9 9
Wind_Speed
5 6 7 8 6 4 3 4 0 5 4 6 10 10 8 10 12 13 14 14 14 15 15 14 14 13 12 11 11 11 11 10 9 7 7 6 6 6 6 7 10 12 13 12
6 8 7 4 3 1 2 3 3 6 5 4 8 8 7 9 12 13 14 14 15 16 16 15 15 14 13 12 12 11 11 11 10 7 7 6 7 7 7 6 8 11 12 12
8 6 4 4 5 1 1 1 2 5 6 6 5 5 5 7 10 13 14 14 15 15 16 17 16 15 14 13 12 11 11 11 10 9 7 7 6 6 5 6 7 8 11 12
9 5 3 4 6 5 1 3 1 6 7 3 3 3 6 7 11 15 15 15 15 16 16 16 16 16 14 13 12 11 10 10 10 9 8 8 7 6 6 6 5 7 8 10
6 6 6 5 5 5 3 2 3 6 5 4 1 4 4 8 13 16 16 16 15 15 16 15 15 14 14 13 12 11 11 10 10 9 8 8 7 6 6 5 5 4 5 6
7 4 6 6 2 3 0 4 6 6 6 3 3 3 4 8 13 15 14 15 15 15 15 15 14 14 13 13 12 12 12 11 11 10 9 8 8 7 6 5 3 2 1 2
6 6 4 4 1 1 2 5 4 5 4 2 2 1 4 8 10 11 12 13 13 13 14 15 16 16 15 14 13 13 13 12 12 11 10 10 9 7 6 5 4 3 1 0
5 4 5 6 5 3 2 4 4 3 0 3 2 1 3 6 7 8 9 10 12 13 13 14 14 14 13 13 13 13 13 12 12 12 11 10 10 7 6 6 5 4 3 2
2 4 4 5 6 3 1 2 3 2 1 2 3 2 3 4 7 9 10 11 12 12 12 13 13 13 13 13 13 13 13 13 12 12 12 11 11 10 9 8 6 5 4 4
2 5 3 1 1 6 5 2 2 2 2 1 2 1 2 6 8 9 10 11 12 12 12 12 12 12 12 11 11 11 12 12 12 12 11 9 11 11 10 9 9 8 7 6
1 3 4 3 5 7 2 1 2 1 2 2 1 2 2 4 6 7 8 9 10 11 11 11 10 9 10 11 11 11 11 12 12 12 11 11 11 11 11 10 10 9 8 7
1 1 5 5 3 3 4 3 2 2 1 1 1 3 3 1 3 5 6 7 8 9 10 10 10 10 10 10 10 11 11 11 11 11 11 11 11 12 12 12 11 10 10 9
3 2 4 5 4 3 2 2 1 1 1 1 1 3 3 1 1 2 4 6 7 9 10 10 10 9 10 10 10 11 11 11 11 11 11 11 12 12 12 12 11 11 10 10
1 1 2 3 4 2 2 2 2 3 1 1 1 2 3 2 1 2 4 5 7 8 9 10 9 9 9 9 9 10 10 10 10 11 11 11 11 11 11 11 11 11 11 11
2 3 4 5 3 2 1 3 4 4 2 2 2 3 3 3 2 2 3 5 6 8 9 10 10 9 8 8 8 8 9 10 10 10 11 11 10 10 11 11 11 11 11 11
2 4 5 4 3 4 6 6 6 5 4 4 4 5 4 4 4 3 3 4 6 8 9 10 9 9 8 7 7 7 8 9 9 10 10 9 9 9 10 10 10 11 11 11
4 4 3 2 2 5 7 9 12 7 8 7 7 5 7 7 6 4 3 4 5 7 8 9 9 8 7 7 6 6 6 7 8 9 9 9 9 9 9 9 10 10 10 10
4 3 2 2 3 4 3 3 8 9 9 11 7 6 8 7 5 5 5 5 5 6 7 8 8 8 7 6 5 4 4 5 7 8 9 9 9 8 8 9 9 9 9 9
2 3 3 3 4 5 3 6 8 9 8 14 13 11 10 7 6 7 6 5 4 5 6 6 7 7 6 6 5 3 3 5 6 7 8 8 8 8 9 9 9 9 8 8
2 4 5 3 4 3 2 8 9 6 6 13 17 15 13 11 7 5 5 4 3 3 4 5 5 6 6 6 5 3 3 4 5 6 6 7 7 8 8 8 8 8 7 8
5 5 7 7 5 5 4 10 11 7 1 12 18 17 16 14 6 6 6 4 2 2 2 3 4 4 5 6 4 3 3 4 4 4 4 5 6 7 7 7 7 7 7 7
7 6 6 5 6 4 11 12 10 5 3 11 16 17 16 13 8 7 6 4 3 2 1 2 3 3 4 5 4 3 3 3 2 3 3 4 5 5 6 6 7 7 7 7
7 6 4 7 5 2 15 11 8 4 7 10 15 16 16 14 12 10 7 6 4 3 2 1 2 2 3 4 4 3 2 1 2 3 3 3 4 4 5 5 6 6 7 7
6 5 5 7 10 9 14 13 10 9 8 10 14 16 16 15 13 11 9 7 6 4 3 2 2 2 2 3 3 3 1 2 3 3 2 1 2 3 4 4 5 5 6 7
5 8 6 9 9 6 11 17 16 13 10 10 14 16 17 16 14 13 10 8 7 5 4 3 2 1 1 2 2 2 1 2 3 4 3 2 1 1 2 3 3 4 5 5
9 10 8 7 6 6 4 10 19 18 16 14 16 16 16 15 14 13 11 9 8 7 5 4 3 3 2 1 1 1 1 2 3 3 3 2 1 1 1 2 1 2 1 2
Wind_Direction
44 64 50 27 14 350 320 288 143 96 106 88 99 95 69 44 32 22 14 8 3 357 353 354 350 347 342 341 340 339 338 338 334 328 323 312 300 289 271 260 252 241 239 239
107 66 40 23 17 321 278 241 142 112 108 116 118 99 72 43 29 19 8 3 359 353 352 353 350 348 343 341 339 335 337 336 334 327 315 299 295 283 275 265 255 244 236 231
91 70 40 43 40 24 60 300 173 151 129 136 157 135 66 40 27 20 13 5 1 357 352 351 350 347 344 343 340 335 335 333 334 330 321 314 304 289 277 267 256 244 233 226
83 65 53 55 42 354 160 47 192 178 194 160 244 219 60 17 16 14 9 5 2 358 354 352 349 348 346 342 337 335 335 336 337 333 331 326 314 305 298 288 269 252 236 226
100 65 43 40 31 356 13 348 219 198 202 176 10 274 57 15 6 4 3 2 1 358 356 354 352 349 349 345 341 341 340 341 340 337 337 330 323 311 304 300 284 265 241 228
99 85 34 22 38 11 246 146 139 173 205 206 12 317 35 15 354 351 357 0 2 360 358 358 359 358 355 353 354 354 353 352 349 347 349 347 339 333 331 332 320 296 254 228
120 87 55 3 291 116 230 225 205 196 206 114 41 5 45 10 356 352 353 357 2 3 2 3 4 4 2 0 1 1 2 1 0 0 1 355 349 348 354 353 351 359 4 358
176 108 48 25 11 354 21 301 305 301 283 127 157 60 58 14 1 1 3 3 4 6 6 6 5 5 6 6 5 7 5 6 5 5 3 3 1 358 6 11 12 22 20 13
156 112 97 49 32 344 343 43 348 338 102 156 125 116 130 21 15 13 12 10 10 9 8 7 6 7 9 10 8 8 8 10 9 10 10 10 11 14 16 19 23 26 30 35
113 126 104 137 178 56 31 6 259 271 266 190 147 133 11 9 8 8 10 8 8 8 9 10 9 5 7 9 8 10 12 11 9 12 15 15 16 21 21 25 29 28 29 34
168 133 126 127 38 20 32 64 43 68 335 309 171 101 46 357 354 355 2 7 7 4 3 5 6 3 5 9 13 14 16 15 12 13 19 23 24 26 28 30 29 28 30 31
47 147 119 100 84 30 38 28 314 314 94 22 101 113 108 341 339 344 356 4 4 360 359 3 5 6 10 12 13 18 19 18 16 16 23 27 28 30 32 33 31 32 35 34
167 204 162 163 167 168 84 59 38 39 137 173 182 120 142 228 319 349 353 352 353 355 358 3 5 9 10 13 17 21 22 19 19 22 26 29 34 35 35 34 35 36 37 38
233 123 353 41 80 115 139 163 208 252 250 170 187 152 179 206 244 337 350 350 349 355 1 3 2 8 11 12 17 21 22 21 20 25 29 32 34 36 37 38 38 39 39 39
237 122 105 97 115 164 209 203 208 235 259 255 176 199 194 194 223 297 317 331 342 354 359 1 360 1 6 11 15 20 20 20 21 26 30 30 33 36 38 39 39 39 38 40
195 154 159 169 190 238 252 229 216 221 221 221 208 216 196 195 221 252 282 318 334 348 353 353 356 357 360 5 8 14 18 19 22 27 29 28 30 34 35 36 37 37 37 37
174 182 215 214 204 262 258 224 208 210 208 206 212 195 178 198 214 237 274 299 321 335 342 347 352 355 353 359 360 6 13 15 22 28 28 27 29 31 31 33 33 32 35 35
187 194 235 259 243 259 94 124 196 212 216 212 212 186 190 200 210 240 261 277 305 329 337 344 346 350 349 354 358 3 15 17 25 29 30 30 29 30 31 31 30 28 29 32
239 208 235 261 276 278 202 188 190 208 230 210 207 198 193 194 218 227 222 245 286 320 330 336 340 343 350 358 354 356 25 32 34 33 32 32 31 31 30 29 28 26 26 29
171 224 241 246 274 266 143 160 175 200 246 200 197 194 188 189 207 177 172 208 255 301 325 336 341 350 4 8 360 1 27 38 43 39 37 36 35 33 30 27 24 24 26 27
190 205 227 241 259 265 144 151 166 205 280 170 186 189 187 195 193 135 160 193 227 278 318 327 338 357 5 0 1 20 35 45 54 58 52 44 42 38 32 27 24 22 27 28
209 204 212 214 234 252 150 163 197 224 120 172 182 186 188 192 178 167 184 196 208 231 278 321 337 1 7 3 2 28 44 54 90 97 78 57 47 40 38 35 30 28 25 28
221 222 227 223 248 69 177 196 207 208 188 183 183 184 185 187 187 192 196 198 202 216 226 287 321 336 4 15 7 17 43 120 154 141 111 78 63 53 41 36 33 32 28 26
210 210 234 255 258 234 211 218 213 209 206 190 186 183 186 188 190 192 195 196 200 205 211 238 276 316 7 12 7 5 10 190 182 169 153 125 68 58 52 38 30 30 27 21
214 188 222 248 261 241 226 219 212 205 204 192 188 187 188 190 191 192 194 197 199 199 203 218 245 285 324 349 360 4 330 214 197 185 181 180 108 46 34 42 31 21 38 25
204 201 213 248 245 220 219 207 204 200 200 194 189 189 192 193 192 193 195 194 196 199 201 209 219 237 254 302 340 1 315 243 224 204 197 202 205 224 330 359 70 148 336 49
Height
1547 1548 1553 1556 1555 1553 1551 1551 1556 1565 1570 1571 1575 1579 1580 1580 1578 1576 1574 1571 1569 1566 1563 1560 1556 1553 1549 1546 1543 1540 1537 1534 1531 1529 1527 1525 1524 1523 1523 1523 1524 1525 1528 1530
1548 1557 1561 1559 1557 1554 1553 1554 1560 1569 1571 1571 1576 1578 1579 1580 1579 1578 1575 1572 1569 1566 1562 1559 1555 1551 1547 1544 1541 1538 1535 1532 1528 1526 1523 1521 1519 1518 1518 1518 1519 1520 1522 1524
1553 1563 1563 1560 1558 1556 1557 1558 1561 1567 1573 1572 1573 1578 1577 1578 1578 1578 1576 1573 1570 1566 1562 1558 1554 1550 1546 1542 1538 1535 1532 1529 1526 1523 1520 1518 1516 1514 1514 1514 1514 1514 1516 1518
1560 1565 1564 1561 1562 1560 1561 1565 1565 1567 1566 1569 1572 1570 1576 1576 1576 1576 1575 1573 1570 1566 1562 1558 1553 1548 1544 1541 1537 1534 1531 1527 1524 1521 1518 1515 1513 1512 1510 1510 1509 1509 1510 1512
1564 1566 1564 1564 1567 1566 1564 1567 1565 1564 1564 1566 1569 1567 1575 1575 1577 1576 1575 1573 1570 1567 1562 1558 1553 1548 1544 1539 1535 1532 1529 1526 1522 1519 1516 1513 1511 1509 1507 1506 1505 1505 1506 1507
1566 1569 1568 1568 1569 1569 1567 1566 1565 1563 1561 1568 1575 1572 1581 1580 1581 1578 1576 1574 1571 1567 1563 1558 1553 1548 1543 1539 1535 1531 1528 1524 1521 1518 1515 1512 1510 1507 1505 1504 1503 1502 1503 1504
1566 1568 1570 1570 1566 1566 1564 1562 1562 1562 1563 1571 1577 1577 1584 1583 1582 1581 1578 1575 1572 1568 1563 1559 1553 1548 1543 1539 1535 1531 1527 1524 1520 1517 1514 1511 1509 1506 1504 1503 1502 1501 1501 1502
1561 1568 1571 1571 1570 1567 1566 1562 1562 1561 1561 1573 1577 1579 1583 1583 1583 1581 1578 1575 1572 1569 1564 1560 1555 1550 1545 1540 1536 1532 1528 1524 1521 1518 1514 1512 1509 1506 1504 1503 1502 1501 1501 1501
1557 1570 1574 1575 1573 1569 1564 1564 1566 1562 1565 1569 1574 1579 1581 1581 1581 1580 1578 1575 1572 1569 1566 1561 1557 1552 1547 1543 1538 1534 1530 1526 1522 1519 1516 1512 1510 1507 1505 1504 1503 1502 1501 1501
1557 1567 1572 1574 1571 1573 1570 1569 1564 1563 1566 1567 1576 1579 1581 1580 1580 1579 1577 1576 1573 1570 1567 1563 1559 1554 1550 1546 1541 1537 1532 1528 1524 1521 1517 1514 1511 1509 1507 1506 1504 1503 1503 1502
1559 1561 1571 1571 1572 1573 1572 1571 1569 1567 1568 1568 1576 1583 1580 1581 1581 1580 1578 1576 1574 1571 1568 1564 1560 1556 1552 1548 1544 1539 1535 1531 1527 1523 1520 1517 1514 1511 1509 1507 1506 1505 1504 1504
1562 1558 1565 1573 1577 1577 1574 1574 1571 1568 1572 1572 1574 1583 1580 1581 1582 1581 1579 1577 1575 1572 1569 1565 1562 1558 1554 1550 1546 1542 1538 1534 1530 1526 1523 1520 1517 1514 1512 1510 1508 1507 1506 1505
1563 1561 1565 1570 1576 1576 1575 1577 1576 1572 1570 1572 1574 1581 1579 1580 1580 1580 1579 1577 1575 1572 1569 1566 1562 1559 1555 1552 1548 1545 1541 1537 1533 1530 1526 1523 1520 1517 1515 1513 1511 1509 1508 1507
1565 1561 1563 1566 1567 1570 1574 1577 1578 1574 1569 1571 1572 1575 1576 1578 1578 1579 1578 1577 1575 1572 1569 1566 1563 1560 1557 1554 1550 1547 1544 1540 1536 1533 1530 1526 1523 1521 1518 1516 1513 1512 1510 1509
1563 1562 1565 1568 1570 1571 1572 1574 1576 1574 1571 1570 1571 1574 1574 1576 1578 1578 1578 1576 1574 1572 1569 1567 1564 1561 1558 1555 1552 1549 1546 1542 1539 1536 1533 1529 1527 1524 1522 1519 1517 1515 1513 1511
1562 1563 1565 1569 1571 1571 1570 1570 1572 1573 1573 1572 1573 1573 1572 1575 1577 1577 1576 1575 1574 1572 1570 1567 1564 1561 1558 1556 1553 1550 1548 1545 1542 1538 1535 1532 1530 1527 1525 1522 1520 1518 1515 1513
1561 1561 1564 1563 1569 1570 1564 1559 1566 1567 1567 1568 1570 1568 1571 1573 1574 1575 1575 1574 1573 1571 1569 1567 1564 1562 1559 1556 1554 1551 1549 1546 1544 1541 1538 1535 1532 1530 1527 1525 1523 1520 1518 1516
1561 1561 1562 1563 1567 1565 1555 1556 1558 1562 1562 1564 1565 1567 1570 1571 1573 1573 1573 1573 1572 1571 1569 1567 1564 1562 1559 1557 1554 1552 1550 1548 1546 1543 1540 1537 1534 1532 1530 1527 1525 1523 1521 1518
1563 1563 1563 1562 1561 1555 1554 1556 1558 1560 1557 1558 1561 1564 1567 1570 1571 1571 1571 1571 1571 1570 1568 1566 1564 1562 1559 1557 1555 1553 1551 1549 1547 1544 1542 1539 1537 1534 1532 1530 1527 1525 1522 1520
1566 1563 1561 1563 1562 1555 1548 1550 1555 1558 1554 1550 1555 1559 1564 1567 1566 1566 1569 1569 1569 1568 1567 1565 1563 1561 1559 1557 1555 1553 1552 1550 1548 1546 1544 1541 1539 1537 1534 1532 1529 1527 1525 1522
1561 1562 1561 1560 1558 1545 1544 1550 1555 1558 1544 1544 1550 1555 1559 1562 1562 1565 1567 1568 1568 1567 1566 1564 1563 1561 1559 1557 1555 1554 1553 1551 1549 1547 1545 1543 1541 1539 1536 1534 1531 1529 1527 1524
1550 1553 1554 1554 1553 1546 1545 1548 1548 1542 1542 1543 1547 1551 1556 1559 1562 1564 1565 1566 1566 1566 1565 1564 1563 1561 1559 1557 1556 1555 1553 1551 1550 1548 1547 1545 1543 1541 1538 1536 1533 1531 1529 1527
1545 1543 1542 1543 1539 1536 1539 1538 1539 1540 1541 1543 1545 1549 1553 1557 1560 1562 1563 1564 1564 1564 1564 1563 1562 1561 1559 1557 1556 1555 1553 1551 1550 1549 1548 1546 1544 1542 1540 1538 1536 1533 1531 1529
1540 1544 1543 1538 1531 1533 1535 1535 1536 1538 1540 1541 1544 1547 1550 1554 1557 1559 1561 1562 1562 1563 1562 1562 1561 1560 1559 1557 1556 1554 1553 1552 1551 1550 1549 1548 1546 1544 1542 1540 1538 1535 1533 1531
1534 1539 1537 1532 1527 1529 1528 1528 1531 1534 1537 1539 1542 1544 1548 1551 1554 1556 1558 1559 1560 1561 1560 1560 1560 1559 1558 1557 1555 1554 1553 1552 1551 1551 1550 1549 1547 1546 1544 1541 1539 1537 1534 1532
1528 1529 1529 1524 1521 1522 1522 1521 1524 1529 1532 1535 1538 1542 1545 1548 1550 1553 1555 1556 1557 1558 1558 1558 1558 1557 1557 1556 1554 1553 1552 1551 1551 1551 1550 1549 1548 1546 1545 1543 1541 1538 1536 1533